#timestamp,LO_Frequency,Hit,StdDev 
1595649615.2,286046999.2,N
1595649665.0,286047001.6,E
1595649675.9,286047002.6,N
1595649695.7,286047006.0,P
1595649715.5,286047002.2,N
1595649735.4,286047000.4,N
1595649755.2,286047002.8,N
1595649775.0,286047001.9,N
1595649775.9,286047001.9,N
1595649795.8,286047003.8,N
1595649815.6,286047004.1,N
1595649835.5,286047003.3,N
1595649855.3,286047003.1,N
1595649875.1,286046997.8,N
1595649895.9,286046990.3,Y
1595649915.7,286046984.5,P
1595649935.5,286046982.3,N
1595649955.4,286046982.5,N
1595649975.2,286046984.4,N
1595649995.1,286046984.7,N
1595649996.0,286046984.7,N
1595650015.8,286046983.3,N
1595650035.6,286046981.0,Y
1595650055.5,286046995.3,P
1595650075.3,286046993.5,N
1595650095.1,286046995.0,N
1595650115.9,286046995.8,N
1595650135.7,286046999.6,N
1595650155.6,286046998.3,N
1595650175.4,286047001.1,N
1595650195.2,286046999.8,N
1595650215.1,286046998.5,N
1595650216.0,286046998.5,N
1595650235.8,286046998.7,N
1595650255.7,286047000.5,N
1595650275.5,286047002.2,N
1595650295.3,286047002.6,N
1595650315.2,286047005.6,N
1595650335.0,286047007.0,N
1595650335.9,286047007.0,N
1595650355.7,286047008.4,N
1595650375.6,286047011.4,N
1595650395.4,286047012.2,N
1595650415.3,286047013.9,N
1595650435.1,286047013.1,N
1595650436.0,286047013.1,N
1595650455.8,286047014.9,N
1595650475.7,286047018.0,N
1595650495.5,286047019.6,N
1595650515.3,286047018.9,N
1595650535.2,286047021.1,N
1595650555.0,286047022.5,N
1595650555.9,286047022.5,N
1595650575.8,286047021.1,N
1595650595.6,286047021.9,N
1595650615.5,286047023.6,N
1595650635.3,286047022.7,N
1595650655.1,286047023.2,N
1595650675.9,286047023.6,N
1595650695.7,286047021.1,N
1595650715.5,286047024.2,N
1595650735.4,286047026.4,Y
1595650755.2,286047015.4,P
1595650775.0,286047012.9,P
1595650776.0,286047012.9,P
1595650795.8,286047015.0,Y
1595650815.6,286046995.3,P
1595650835.5,286046999.6,N
1595650855.3,286046995.6,N
1595650875.1,286046992.3,N
1595650895.9,286046988.9,N
1595650915.7,286046990.5,N
1595650935.6,286046990.3,N
1595650955.4,286046988.7,N
1595650975.2,286046992.7,N
1595650995.1,286046994.2,N
1595650996.0,286046994.2,N
1595651015.8,286046993.6,N
1595651035.7,286046993.4,N
1595651055.5,286046994.0,N
1595651075.3,286046991.7,N
1595651095.2,286046991.9,N
1595651115.9,286046993.5,N
1595651135.7,286046994.1,N
1595651155.6,286046990.6,N
1595651175.4,286046990.3,N
1595651195.3,286046994.5,N
1595651215.1,286046993.6,N
1595651216.0,286046993.6,N
1595651235.8,286046991.9,N
1595651255.7,286046993.7,N
1595651275.5,286046994.9,N
1595651295.3,286046998.7,N
1595651315.2,286047002.3,N
1595651335.0,286047002.7,N
1595651335.9,286047002.7,N
1595651355.8,286046999.7,N
1595651375.6,286047001.2,N
1595651395.4,286046998.9,N
1595651415.3,286046997.7,N
1595651435.1,286046991.3,N
1595651455.9,286046989.9,N
1595651475.7,286046987.4,Y
1595651495.5,286046992.2,P
1595651515.4,286046997.3,N
1595651535.2,286047000.2,N
1595651555.1,286047001.9,N
1595651556.0,286047001.9,N
1595651575.8,286047003.9,N
1595651595.6,286047006.3,N
1595651615.5,286047010.9,N
1595651635.3,286047012.9,N
1595651655.2,286047017.2,N
1595651675.9,286047015.8,N
1595651695.7,286047013.7,N
1595651715.6,286047007.8,N
1595651735.4,286047007.1,N
1595651755.2,286047003.3,N
1595651775.1,286047001.4,N
1595651776.0,286047001.4,N
1595651795.8,286047004.2,N
1595651815.7,286047002.9,N
1595651835.5,286047007.0,N
1595651855.3,286047006.2,N
1595651875.2,286047007.4,N
1595651895.9,286047004.7,N
1595651915.7,286047003.4,N
1595651935.6,286047001.4,N
1595651955.4,286047005.8,N
1595651975.2,286047007.1,N
1595651995.1,286047009.0,N
1595651996.0,286047009.0,N
1595652015.8,286047002.9,N
1595652035.7,286047003.7,N
1595652055.5,286047005.2,N
1595652075.3,286047010.7,N
1595652095.2,286047010.0,N
1595652115.0,286047008.3,N
1595652115.9,286047008.3,N
1595652135.7,286047010.7,N
1595652155.6,286047010.6,N
1595652175.4,286047011.3,N
1595652195.3,286047014.5,Y
1595652215.1,286047007.3,P
1595652235.8,286047004.7,P
1595652255.7,286047012.5,P
1595652275.5,286047014.7,Y
1595652295.4,286047007.6,P
1595652315.2,286047004.9,P
1595652335.0,286047006.3,P
1595652335.9,286047006.3,Y
1595652355.8,286046997.2,P
1595652375.6,286046995.3,N
1595652395.4,286046993.8,N
1595652415.3,286046993.7,N
1595652435.1,286046995.0,N
1595652455.9,286046995.6,N
1595652475.7,286046996.6,N
1595652495.5,286046995.0,N
1595652515.4,286046993.7,N
1595652535.2,286046995.7,N
1595652555.0,286046997.0,N
1595652555.9,286046997.0,N
1595652575.8,286046998.7,N
1595652595.6,286047001.7,N
1595652615.5,286047005.3,N
1595652635.3,286047001.5,N
1595652655.1,286047007.1,N
1595652675.9,286047005.0,N
1595652695.7,286047008.8,N
1595652715.5,286047015.0,Y
1595652735.4,286047017.5,P
1595652755.2,286047015.7,N
1595652775.1,286047019.2,N
1595652776.0,286047019.2,N
1595652795.8,286047015.8,N
1595652815.6,286047017.1,N
1595652835.5,286047014.7,N
1595652855.3,286047019.7,Y
1595652875.2,286047003.3,P
1595652895.9,286047000.2,N
1595652915.7,286047000.2,N
1595652935.6,286046997.2,N
1595652955.4,286046995.1,N
1595652975.2,286046994.5,N
1595652995.1,286046992.8,N
1595652996.0,286046992.8,N
1595653015.8,286046988.6,N
1595653035.7,286046989.3,N
1595653055.5,286046988.8,N
1595653075.3,286046991.4,N
1595653095.2,286046991.5,N
1595653115.9,286046991.2,N
1595653135.7,286046990.5,N
1595653155.6,286046991.2,N
1595653175.4,286046993.9,N
1595653195.2,286046997.1,N
